Time,TemperatureF,DewpointF,PressureIn,WindDirection,WindDirectionDegrees,WindSpeedMPH,WindSpeedGustMPH,Humidity,HourlyPrecipIn,Conditions,Clouds,dailyrainin,SolarRadiationWatts/m^2,SoftwareType,DateUTC
2018-02-18 00:04:00,48.8,47.7,30.05,SSW,198,0.0,0.0,96,0.22,,,0.02,0,Wunderground v.1.15,2018-02-18 08:04:00,
2018-02-18 00:10:00,48.7,47.6,30.05,North,360,1.0,1.0,96,0.21,,,0.04,0,Wunderground v.1.15,2018-02-18 08:10:00,
2018-02-18 00:16:00,48.6,47.5,30.05,SW,221,1.0,1.0,96,0.07,,,0.04,0,Wunderground v.1.15,2018-02-18 08:16:00,
2018-02-18 00:22:00,48.3,46.9,30.05,North,360,0.0,0.0,95,0.06,,,0.05,0,Wunderground v.1.15,2018-02-18 08:22:00,
2018-02-18 00:28:00,48.1,46.7,30.05,WSW,242,0.0,1.0,95,0.06,,,0.05,0,Wunderground v.1.15,2018-02-18 08:28:00,
2018-02-18 00:34:00,48.1,47.0,30.05,WNW,291,0.0,0.0,96,0.04,,,0.05,0,Wunderground v.1.15,2018-02-18 08:34:00,
2018-02-18 00:40:00,48.2,47.1,30.05,WNW,292,0.0,0.0,96,0.00,,,0.05,0,Wunderground v.1.15,2018-02-18 08:40:00,
2018-02-18 00:46:00,48.2,47.1,30.04,North,360,0.0,0.0,96,0.00,,,0.05,0,Wunderground v.1.15,2018-02-18 08:46:00,
2018-02-18 00:52:00,48.3,47.2,30.04,WNW,289,0.0,0.0,96,0.00,,,0.05,0,Wunderground v.1.15,2018-02-18 08:52:00,
2018-02-18 00:58:00,48.3,46.9,30.04,WNW,284,0.0,0.0,95,0.00,,,0.05,0,Wunderground v.1.15,2018-02-18 08:58:00,
2018-02-18 01:04:00,48.2,46.8,30.04,North,360,0.0,0.0,95,0.00,,,0.05,0,Wunderground v.1.15,2018-02-18 09:04:00,
2018-02-18 01:12:00,48.1,46.7,30.04,NW,304,0.0,3.0,95,0.00,,,0.05,0,Wunderground v.1.15,2018-02-18 09:12:00,
2018-02-18 01:18:00,47.9,46.5,30.04,North,360,1.0,3.0,95,0.00,,,0.06,0,Wunderground v.1.15,2018-02-18 09:18:00,
2018-02-18 01:24:00,47.9,46.5,30.04,WSW,245,1.0,4.0,95,0.13,,,0.07,0,Wunderground v.1.15,2018-02-18 09:24:00,
2018-02-18 01:30:00,47.6,46.2,30.04,ENE,74,1.0,1.0,95,0.06,,,0.07,0,Wunderground v.1.15,2018-02-18 09:30:00,
2018-02-18 01:36:00,47.4,46.0,30.04,North,9,0.0,1.0,95,0.04,,,0.07,0,Wunderground v.1.15,2018-02-18 09:36:00,
2018-02-18 01:42:00,47.3,45.9,30.04,NNW,336,0.0,3.0,95,0.00,,,0.07,0,Wunderground v.1.15,2018-02-18 09:42:00,
2018-02-18 01:48:00,47.1,45.5,30.04,North,360,0.0,3.0,94,0.00,,,0.07,0,Wunderground v.1.15,2018-02-18 09:48:00,
2018-02-18 01:54:00,47.1,45.7,30.04,NNW,336,0.0,1.0,95,0.00,,,0.07,0,Wunderground v.1.15,2018-02-18 09:54:00,
2018-02-18 02:00:00,47.0,45.4,30.03,North,11,0.0,0.0,94,0.00,,,0.07,0,Wunderground v.1.15,2018-02-18 10:00:00,
2018-02-18 02:06:00,47.0,45.4,30.03,North,351,0.0,0.0,94,0.00,,,0.07,0,Wunderground v.1.15,2018-02-18 10:06:00,
2018-02-18 02:12:00,46.9,45.3,30.03,NNW,344,0.0,0.0,94,0.00,,,0.07,0,Wunderground v.1.15,2018-02-18 10:12:00,
2018-02-18 02:18:00,46.9,45.3,30.03,NNW,345,0.0,0.0,94,0.00,,,0.07,0,Wunderground v.1.15,2018-02-18 10:18:00,
2018-02-18 02:24:00,46.6,45.0,30.03,North,360,0.0,0.0,94,0.00,,,0.07,0,Wunderground v.1.15,2018-02-18 10:24:00,
2018-02-18 02:30:00,46.5,44.9,30.03,West,261,0.0,0.0,94,0.00,,,0.07,0,Wunderground v.1.15,2018-02-18 10:30:00,
2018-02-18 02:36:00,46.5,44.6,30.03,North,360,0.0,0.0,93,0.00,,,0.07,0,Wunderground v.1.15,2018-02-18 10:36:00,
2018-02-18 02:42:00,46.6,44.7,30.03,West,270,0.0,0.0,93,0.00,,,0.07,0,Wunderground v.1.15,2018-02-18 10:42:00,
2018-02-18 02:48:00,46.8,44.9,30.03,NW,314,0.0,0.0,93,0.00,,,0.07,0,Wunderground v.1.15,2018-02-18 10:48:00,
2018-02-18 02:54:00,46.8,44.6,30.03,North,360,0.0,0.0,92,0.00,,,0.07,0,Wunderground v.1.15,2018-02-18 10:54:00,
2018-02-18 03:00:00,46.7,44.5,30.03,West,281,0.0,0.0,92,0.00,,,0.07,0,Wunderground v.1.15,2018-02-18 11:00:00,
2018-02-18 03:06:00,46.6,44.1,30.03,NW,322,0.0,3.0,91,0.00,,,0.07,0,Wunderground v.1.15,2018-02-18 11:06:00,
2018-02-18 03:12:00,46.5,43.7,30.03,NNW,327,0.0,0.0,90,0.00,,,0.07,0,Wunderground v.1.15,2018-02-18 11:12:00,
2018-02-18 03:18:00,46.5,44.0,30.03,WNW,297,0.0,0.0,91,0.00,,,0.07,0,Wunderground v.1.15,2018-02-18 11:18:00,
2018-02-18 03:24:00,46.6,44.1,30.02,NW,317,0.0,0.0,91,0.00,,,0.07,0,Wunderground v.1.15,2018-02-18 11:24:00,
2018-02-18 03:30:00,46.6,44.1,30.02,North,360,0.0,0.0,91,0.00,,,0.07,0,Wunderground v.1.15,2018-02-18 11:30:00,
2018-02-18 03:36:00,46.7,44.2,30.02,North,360,0.0,0.0,91,0.00,,,0.07,0,Wunderground v.1.15,2018-02-18 11:36:00,
2018-02-18 03:42:00,46.7,44.2,30.02,North,360,0.0,0.0,91,0.00,,,0.07,0,Wunderground v.1.15,2018-02-18 11:42:00,
2018-02-18 03:48:00,46.6,44.1,30.02,North,360,0.0,0.0,91,0.00,,,0.07,0,Wunderground v.1.15,2018-02-18 11:48:00,
2018-02-18 03:54:00,46.5,44.0,30.02,North,360,0.0,0.0,91,0.00,,,0.07,0,Wunderground v.1.15,2018-02-18 11:54:00,
2018-02-18 04:00:00,46.6,44.1,30.02,West,263,0.0,4.0,91,0.00,,,0.07,0,Wunderground v.1.15,2018-02-18 12:00:00,
2018-02-18 04:06:00,46.6,43.5,30.02,North,360,0.0,4.0,89,0.00,,,0.07,0,Wunderground v.1.15,2018-02-18 12:06:00,
2018-02-18 04:12:00,46.5,43.4,30.02,WNW,288,0.0,1.0,89,0.00,,,0.07,0,Wunderground v.1.15,2018-02-18 12:12:00,
2018-02-18 04:18:00,46.5,43.7,30.02,North,360,0.0,1.0,90,0.00,,,0.07,0,Wunderground v.1.15,2018-02-18 12:18:00,
2018-02-18 04:24:00,46.5,44.0,30.02,West,274,0.0,0.0,91,0.00,,,0.07,0,Wunderground v.1.15,2018-02-18 12:24:00,
2018-02-18 04:30:00,46.6,44.4,30.02,North,360,0.0,0.0,92,0.00,,,0.07,0,Wunderground v.1.15,2018-02-18 12:30:00,
2018-02-18 04:36:00,46.7,44.2,30.02,NNW,329,0.0,1.0,91,0.00,,,0.07,0,Wunderground v.1.15,2018-02-18 12:36:00,
2018-02-18 04:42:00,46.6,43.8,30.02,North,360,1.0,4.0,90,0.00,,,0.07,0,Wunderground v.1.15,2018-02-18 12:42:00,
2018-02-18 04:48:00,46.4,44.2,30.02,WSW,253,1.0,4.0,92,0.00,,,0.08,0,Wunderground v.1.15,2018-02-18 12:48:00,
2018-02-18 04:54:00,46.3,44.1,30.02,North,360,0.0,1.0,92,0.11,,,0.09,0,Wunderground v.1.15,2018-02-18 12:54:00,
2018-02-18 05:00:00,46.2,44.3,30.02,West,262,0.0,0.0,93,0.06,,,0.09,0,Wunderground v.1.15,2018-02-18 13:00:00,
2018-02-18 05:06:00,46.0,44.1,30.02,North,360,0.0,0.0,93,0.04,,,0.10,0,Wunderground v.1.15,2018-02-18 13:06:00,
2018-02-18 05:12:00,45.8,43.9,30.02,North,360,0.0,2.0,93,0.04,,,0.10,0,Wunderground v.1.15,2018-02-18 13:12:00,
2018-02-18 05:18:00,45.7,43.8,30.02,WNW,295,0.0,2.0,93,0.04,,,0.10,0,Wunderground v.1.15,2018-02-18 13:18:00,
2018-02-18 05:24:00,45.7,44.1,30.02,North,360,0.0,0.0,94,0.00,,,0.10,0,Wunderground v.1.15,2018-02-18 13:24:00,
2018-02-18 05:30:00,45.8,44.2,30.02,WNW,298,0.0,0.0,94,0.00,,,0.10,0,Wunderground v.1.15,2018-02-18 13:30:00,
2018-02-18 05:36:00,45.8,44.2,30.02,WNW,296,0.0,0.0,94,0.00,,,0.11,0,Wunderground v.1.15,2018-02-18 13:36:00,
2018-02-18 05:42:00,45.8,44.2,30.02,North,360,0.0,0.0,94,0.00,,,0.11,0,Wunderground v.1.15,2018-02-18 13:42:00,
2018-02-18 05:48:00,45.8,44.2,30.02,NW,308,0.0,0.0,94,0.00,,,0.11,0,Wunderground v.1.15,2018-02-18 13:48:00,
2018-02-18 05:54:00,45.8,44.2,30.01,NW,314,0.0,0.0,94,0.00,,,0.11,0,Wunderground v.1.15,2018-02-18 13:54:00,
2018-02-18 06:00:00,45.7,44.1,30.02,NW,317,0.0,0.0,94,0.00,,,0.11,0,Wunderground v.1.15,2018-02-18 14:00:00,
2018-02-18 06:06:00,45.8,44.2,30.02,North,360,0.0,1.0,94,0.00,,,0.11,0,Wunderground v.1.15,2018-02-18 14:06:00,
2018-02-18 06:12:00,45.8,44.2,30.02,NNW,345,0.0,2.0,94,0.00,,,0.11,0,Wunderground v.1.15,2018-02-18 14:12:00,
2018-02-18 06:18:00,45.6,43.4,30.01,NNW,346,0.0,2.0,92,0.00,,,0.11,0,Wunderground v.1.15,2018-02-18 14:18:00,
2018-02-18 06:24:00,45.6,43.1,30.01,NNE,19,0.0,0.0,91,0.00,,,0.11,0,Wunderground v.1.15,2018-02-18 14:24:00,
2018-02-18 06:30:00,45.8,43.0,30.01,SW,236,0.0,0.0,90,0.00,,,0.11,0,Wunderground v.1.15,2018-02-18 14:30:00,
2018-02-18 06:36:00,45.8,43.3,30.02,SSW,205,0.0,2.0,91,0.32,,,0.13,0,Wunderground v.1.15,2018-02-18 14:36:00,
2018-02-18 06:42:00,45.6,42.8,30.01,NW,325,0.0,0.0,90,0.17,,,0.14,0,Wunderground v.1.15,2018-02-18 14:42:00,
2018-02-18 06:48:00,45.3,42.8,30.01,North,360,0.0,2.0,91,0.06,,,0.14,0,Wunderground v.1.15,2018-02-18 14:48:00,
2018-02-18 06:54:00,45.2,42.7,30.01,WSW,246,0.0,2.0,91,0.04,,,0.14,0,Wunderground v.1.15,2018-02-18 14:54:00,
2018-02-18 07:00:00,45.4,43.2,30.01,West,277,0.0,0.0,92,0.00,,,0.14,0,Wunderground v.1.15,2018-02-18 15:00:00,
2018-02-18 07:06:00,45.5,43.0,30.02,North,32767,1.0,1.0,91,0.00,,,0.14,0,Wunderground v.1.15,2018-02-18 15:06:00,
2018-02-18 07:12:00,45.3,43.1,30.02,North,360,1.0,4.0,92,0.16,,,0.17,0,Wunderground v.1.15,2018-02-18 15:12:00,
2018-02-18 07:18:00,45.2,43.0,30.02,North,360,1.0,4.0,92,0.06,,,0.17,5,Wunderground v.1.15,2018-02-18 15:18:00,
2018-02-18 07:24:00,45.1,42.9,30.01,NNW,335,1.0,1.0,92,0.06,,,0.18,7,Wunderground v.1.15,2018-02-18 15:24:00,
2018-02-18 07:30:00,45.1,42.9,30.02,North,360,0.0,4.0,92,0.05,,,0.18,9,Wunderground v.1.15,2018-02-18 15:30:00,
2018-02-18 07:36:00,45.2,43.0,30.02,NNW,334,0.0,4.0,92,0.00,,,0.18,19,Wunderground v.1.15,2018-02-18 15:36:00,
2018-02-18 07:42:00,45.2,42.7,30.02,North,360,1.0,1.0,91,0.00,,,0.18,9,Wunderground v.1.15,2018-02-18 15:42:00,
2018-02-18 07:48:00,45.0,42.0,30.02,North,360,1.0,3.0,89,0.00,,,0.18,11,Wunderground v.1.15,2018-02-18 15:48:00,
2018-02-18 07:54:00,45.0,42.2,30.01,North,32767,1.0,1.0,90,0.00,,,0.18,16,Wunderground v.1.15,2018-02-18 15:54:00,
2018-02-18 08:00:00,44.9,42.1,30.02,North,360,0.0,0.0,90,0.00,,,0.18,26,Wunderground v.1.15,2018-02-18 16:00:00,
2018-02-18 08:06:00,45.0,42.2,30.02,North,5,0.0,6.0,90,0.00,,,0.18,37,Wunderground v.1.15,2018-02-18 16:06:00,
2018-02-18 08:12:00,45.5,43.0,30.02,North,351,1.0,1.0,91,0.00,,,0.18,40,Wunderground v.1.15,2018-02-18 16:12:00,
2018-02-18 08:18:00,45.8,42.7,30.02,ENE,65,1.0,1.0,89,0.00,,,0.18,79,Wunderground v.1.15,2018-02-18 16:18:00,
2018-02-18 08:24:00,46.0,42.6,30.02,North,360,1.0,4.0,88,0.00,,,0.18,67,Wunderground v.1.15,2018-02-18 16:24:00,
2018-02-18 08:30:00,46.1,42.7,30.03,NW,323,1.0,1.0,88,0.00,,,0.18,65,Wunderground v.1.15,2018-02-18 16:30:00,
2018-02-18 08:36:00,46.1,41.8,30.03,North,360,1.0,1.0,85,0.00,,,0.18,86,Wunderground v.1.15,2018-02-18 16:36:00,
2018-02-18 08:42:00,46.2,41.6,30.03,North,11,0.0,1.0,84,0.00,,,0.18,86,Wunderground v.1.15,2018-02-18 16:42:00,
2018-02-18 08:48:00,46.3,42.6,30.03,WSW,244,0.0,1.0,87,0.00,,,0.18,49,Wunderground v.1.15,2018-02-18 16:48:00,
2018-02-18 08:54:00,45.9,42.2,30.03,NNW,333,1.0,2.0,87,0.00,,,0.18,72,Wunderground v.1.15,2018-02-18 16:54:00,
2018-02-18 09:00:00,45.8,42.2,30.04,NE,49,1.0,1.0,87,0.00,,,0.18,44,Wunderground v.1.15,2018-02-18 17:00:00,
2018-02-18 09:06:00,45.4,41.8,30.03,NW,306,1.0,3.0,87,0.00,,,0.19,72,Wunderground v.1.15,2018-02-18 17:06:00,
2018-02-18 09:12:00,44.8,40.9,30.03,North,360,3.0,4.0,86,0.00,,,0.19,125,Wunderground v.1.15,2018-02-18 17:12:00,
2018-02-18 09:18:00,44.7,40.5,30.03,North,360,3.0,5.0,85,0.00,,,0.19,116,Wunderground v.1.15,2018-02-18 17:18:00,
2018-02-18 09:24:00,44.8,40.9,30.03,NNW,330,1.0,2.0,86,0.00,,,0.19,118,Wunderground v.1.15,2018-02-18 17:24:00,
2018-02-18 09:30:00,45.0,41.1,30.03,NNW,338,1.0,4.0,86,0.00,,,0.19,86,Wunderground v.1.15,2018-02-18 17:30:00,
2018-02-18 09:36:00,45.4,42.1,30.03,North,11,2.0,6.0,88,0.00,,,0.19,144,Wunderground v.1.15,2018-02-18 17:36:00,
2018-02-18 09:42:00,46.1,43.0,30.03,NNE,18,2.0,4.0,89,0.00,,,0.19,120,Wunderground v.1.15,2018-02-18 17:42:00,
2018-02-18 09:48:00,46.5,42.8,30.03,NNE,14,1.0,4.0,87,0.00,,,0.19,192,Wunderground v.1.15,2018-02-18 17:48:00,
2018-02-18 09:54:00,46.6,42.6,30.04,NNW,346,1.0,6.0,86,0.00,,,0.19,111,Wunderground v.1.15,2018-02-18 17:54:00,
2018-02-18 10:00:00,46.0,41.4,30.04,North,360,3.0,3.0,84,0.00,,,0.19,132,Wunderground v.1.15,2018-02-18 18:00:00,
2018-02-18 10:06:00,45.8,40.9,30.04,North,360,2.0,6.0,83,0.00,,,0.19,79,Wunderground v.1.15,2018-02-18 18:06:00,
2018-02-18 10:12:00,45.8,40.3,30.04,North,360,2.0,5.0,81,0.00,,,0.19,54,Wunderground v.1.15,2018-02-18 18:12:00,
2018-02-18 10:18:00,45.5,39.4,30.04,NW,309,2.0,13.0,79,0.00,,,0.19,91,Wunderground v.1.15,2018-02-18 18:18:00,
2018-02-18 10:24:00,45.0,38.9,30.04,NNW,334,2.0,2.0,79,0.00,,,0.19,65,Wunderground v.1.15,2018-02-18 18:24:00,
2018-02-18 10:30:00,44.6,39.1,30.04,North,360,2.0,7.0,81,0.00,,,0.20,63,Wunderground v.1.15,2018-02-18 18:30:00,
2018-02-18 10:36:00,44.4,39.9,30.04,North,360,1.0,7.0,84,0.00,,,0.20,132,Wunderground v.1.15,2018-02-18 18:36:00,
2018-02-18 10:42:00,44.7,40.8,30.03,NNW,339,1.0,1.0,86,0.00,,,0.20,118,Wunderground v.1.15,2018-02-18 18:42:00,
2018-02-18 10:48:00,45.6,40.7,30.03,NNE,13,2.0,4.0,83,0.00,,,0.20,146,Wunderground v.1.15,2018-02-18 18:48:00,
2018-02-18 10:54:00,46.1,40.3,30.04,North,360,2.0,4.0,80,0.00,,,0.20,95,Wunderground v.1.15,2018-02-18 18:54:00,
2018-02-18 11:00:00,46.8,40.6,30.03,North,5,1.0,3.0,79,0.00,,,0.20,526,Wunderground v.1.15,2018-02-18 19:00:00,
2018-02-18 11:06:00,47.7,39.8,30.03,North,360,3.0,6.0,74,0.00,,,0.20,202,Wunderground v.1.15,2018-02-18 19:06:00,
2018-02-18 11:12:00,47.4,41.2,30.04,North,360,2.0,2.0,79,0.00,,,0.20,76,Wunderground v.1.15,2018-02-18 19:12:00,
2018-02-18 11:18:00,45.7,40.2,30.04,WNW,290,1.0,2.0,81,0.00,,,0.20,116,Wunderground v.1.15,2018-02-18 19:18:00,
2018-02-18 11:24:00,45.0,40.1,30.04,NNW,327,1.0,2.0,83,0.00,,,0.20,139,Wunderground v.1.15,2018-02-18 19:24:00,
2018-02-18 11:30:00,44.9,40.7,30.03,North,360,1.0,1.0,85,0.00,,,0.20,183,Wunderground v.1.15,2018-02-18 19:30:00,
2018-02-18 11:36:00,46.1,41.8,30.03,North,360,1.0,2.0,85,0.00,,,0.20,315,Wunderground v.1.15,2018-02-18 19:36:00,
2018-02-18 11:42:00,46.9,42.3,30.03,NNE,21,3.0,4.0,84,0.00,,,0.20,341,Wunderground v.1.15,2018-02-18 19:42:00,
2018-02-18 11:48:00,47.4,42.2,30.03,North,5,4.0,6.0,82,0.00,,,0.20,237,Wunderground v.1.15,2018-02-18 19:48:00,
2018-02-18 11:54:00,47.1,41.9,30.03,North,5,4.0,6.0,82,0.00,,,0.20,111,Wunderground v.1.15,2018-02-18 19:54:00,
2018-02-18 12:00:00,47.1,41.9,30.03,NNW,333,4.0,4.0,82,0.00,,,0.20,633,Wunderground v.1.15,2018-02-18 20:00:00,
2018-02-18 12:06:00,48.3,43.1,30.03,North,360,5.0,6.0,82,0.00,,,0.20,687,Wunderground v.1.15,2018-02-18 20:06:00,
2018-02-18 12:12:00,49.0,43.1,30.03,North,350,4.0,4.0,80,0.00,,,0.20,707,Wunderground v.1.15,2018-02-18 20:12:00,
2018-02-18 12:18:00,48.6,42.0,30.03,North,5,3.0,4.0,78,0.00,,,0.20,200,Wunderground v.1.15,2018-02-18 20:18:00,
2018-02-18 12:24:00,48.4,43.2,30.02,NW,304,2.0,3.0,82,0.00,,,0.20,800,Wunderground v.1.15,2018-02-18 20:24:00,
2018-02-18 12:30:00,48.5,41.6,30.02,North,360,1.0,6.0,77,0.00,,,0.20,186,Wunderground v.1.15,2018-02-18 20:30:00,
2018-02-18 12:36:00,47.8,41.3,30.03,North,360,3.0,15.0,78,0.00,,,0.20,512,Wunderground v.1.15,2018-02-18 20:36:00,
2018-02-18 12:42:00,45.6,39.1,30.04,North,360,6.0,12.0,78,0.00,,,0.20,320,Wunderground v.1.15,2018-02-18 20:42:00,
2018-02-18 12:48:00,45.9,39.8,30.03,NNW,336,5.0,12.0,79,0.00,,,0.20,427,Wunderground v.1.15,2018-02-18 20:48:00,
2018-02-18 12:54:00,46.5,39.3,30.03,NNW,345,5.0,11.0,76,0.00,,,0.20,668,Wunderground v.1.15,2018-02-18 20:54:00,
2018-02-18 13:00:00,46.7,39.2,30.02,NNW,340,5.0,5.0,75,0.00,,,0.20,302,Wunderground v.1.15,2018-02-18 21:00:00,
2018-02-18 13:06:00,46.6,39.4,30.02,North,355,3.0,5.0,76,0.00,,,0.20,202,Wunderground v.1.15,2018-02-18 21:06:00,
2018-02-18 13:12:00,46.4,38.6,30.02,North,360,1.0,2.0,74,0.00,,,0.20,504,Wunderground v.1.15,2018-02-18 21:12:00,
2018-02-18 13:18:00,47.4,40.2,30.02,NW,313,1.0,2.0,76,0.00,,,0.20,679,Wunderground v.1.15,2018-02-18 21:18:00,
2018-02-18 13:24:00,48.3,39.7,30.01,NNE,12,1.0,3.0,72,0.00,,,0.20,619,Wunderground v.1.15,2018-02-18 21:24:00,
2018-02-18 13:30:00,48.6,40.0,30.01,NNW,348,1.0,4.0,72,0.00,,,0.20,626,Wunderground v.1.15,2018-02-18 21:30:00,
2018-02-18 13:36:00,48.7,40.4,30.01,North,360,1.0,4.0,73,0.00,,,0.20,283,Wunderground v.1.15,2018-02-18 21:36:00,
2018-02-18 13:42:00,48.7,40.8,30.01,NE,42,1.0,6.0,74,0.00,,,0.20,362,Wunderground v.1.15,2018-02-18 21:42:00,
2018-02-18 13:48:00,45.9,39.4,30.01,North,355,5.0,10.0,78,0.00,,,0.21,137,Wunderground v.1.15,2018-02-18 21:48:00,
2018-02-18 13:54:00,44.4,38.9,30.01,North,355,5.0,6.0,81,0.00,,,0.21,225,Wunderground v.1.15,2018-02-18 21:54:00,
2018-02-18 14:00:00,44.8,41.2,30.01,North,5,4.0,8.0,87,0.00,,,0.21,587,Wunderground v.1.15,2018-02-18 22:00:00,
2018-02-18 14:06:00,45.8,40.6,30.00,North,355,3.0,8.0,82,0.00,,,0.21,573,Wunderground v.1.15,2018-02-18 22:06:00,
2018-02-18 14:12:00,46.6,40.8,30.00,NNE,15,4.0,4.0,80,0.00,,,0.21,626,Wunderground v.1.15,2018-02-18 22:12:00,
2018-02-18 14:18:00,46.7,40.2,30.00,North,360,5.0,5.0,78,0.00,,,0.21,185,Wunderground v.1.15,2018-02-18 22:18:00,
2018-02-18 14:24:00,46.5,40.0,30.00,North,360,3.0,4.0,78,0.00,,,0.21,257,Wunderground v.1.15,2018-02-18 22:24:00,